Location: 5810 Zion Rd, Cleves, OH 45002, USA
(39.1922°N, 84.7113°W)
Time: 21:18:35
(UTC-05:00)

Explorer 7 - Visible Passes

Search period start: 13 December 2019 00:00
Search period end: 23 December 2019 00:00
Orbit: 485 x 680 km, 50.3° (Epoch: 13 December)

Date Brightness Start Highest point End Pass type
(mag) Time Alt. Az. Time Alt. Az. Time Alt. Az.
13 Dec 8.8 18:13:33 10° NW 18:17:22 22° N 18:20:15 14° NE visible
13 Dec 9.2 19:54:41 10° NW 19:56:35 20° NNW 19:56:35 20° NNW visible
14 Dec 8.7 18:18:47 10° NW 18:22:40 22° N 18:25:08 16° NE visible
14 Dec 9.2 19:59:35 10° NW 20:01:28 22° NW 20:01:28 22° NW visible
15 Dec 8.5 18:23:53 10° NW 18:27:56 25° NNE 18:30:04 19° NE visible
15 Dec 9.2 20:04:28 10° NW 20:06:25 23° NW 20:06:25 23° NW visible
16 Dec 8.3 18:28:54 10° NW 18:33:10 29° NNE 18:35:07 22° NE visible
16 Dec 9.1 20:09:24 10° NW 20:11:27 25° NW 20:11:27 25° NW visible
17 Dec 8.0 18:33:49 10° NW 18:38:21 36° NNE 18:40:18 26° ENE visible
17 Dec 9.1 20:14:24 10° WNW 20:16:39 26° WNW 20:16:39 26° WNW visible
18 Dec 7.5 18:38:43 10° NW 18:43:29 47° NNE 18:45:39 28° E visible
18 Dec 9.2 20:19:31 10° WNW 20:22:01 26° W 20:22:01 26° W visible
19 Dec 7.2 18:43:36 10° NW 18:48:31 67° NNE 18:51:15 26° ESE visible
19 Dec 9.4 20:24:53 10° WNW 20:27:38 22° WSW 20:27:38 22° WSW visible
20 Dec 7.2 18:48:33 10° NW 18:53:29 84° SW 18:57:10 18° SE visible
20 Dec 9.8 20:30:44 10° W 20:33:31 15° SW 20:33:35 15° SW visible
21 Dec 7.9 18:53:34 10° WNW 18:58:22 54° SW 19:03:06 10° SE visible
22 Dec 8.8 18:58:45 10° WNW 19:03:11 34° SW 19:07:33 10° SSE visible
